Station Historical Data
Daily Summary for November 18, 2017 Units:  English    Metric   Both
Next Day »
Daily Weekly Monthly Yearly Custom
  High: Low: Average:
Temperature: 55.3 °F 38.6 °F 45.4 °F
Dew Point: 46.5 °F 32.9 °F 38.7 °F
Humidity: 92% 59% 78%
Wind Speed: 18.0mph 0.0mph 2mph
Wind Gust: 22.0mph - -
Wind- - ESE
Pressure: 30.33 in 30.23 in -
Precipitation: 0.00 in    
Historical Graphs
 
 
Tabular Data for November 18, 2017
Time Temperature Dew Point Pressure Wind Wind Speed Wind Gust Humidity Rainfall Rate (Hourly) solar Conditions
00:04 41.9 °F 34.9 °F 30.26 in ESE 11.0 mph 16.0 mph 76% 0.00 in 0.00 W/m2
00:09 41.9 °F 34.6 °F 30.26 in ESE 9.0 mph 21.0 mph 75% 0.00 in 0.00 W/m2
00:14 41.9 °F 34.9 °F 30.26 in ESE 5.0 mph 19.0 mph 76% 0.00 in 0.00 W/m2
00:19 41.8 °F 34.1 °F 30.26 in East 7.0 mph 16.0 mph 74% 0.00 in 0.00 W/m2
00:24 41.9 °F 34.9 °F 30.26 in ESE 8.0 mph 20.0 mph 76% 0.00 in 0.00 W/m2
00:29 41.9 °F 34.6 °F 30.26 in East 12.0 mph 18.0 mph 75% 0.00 in 0.00 W/m2
00:34 41.9 °F 34.6 °F 30.26 in ESE 13.0 mph 15.0 mph 75% 0.00 in 0.00 W/m2
00:39 41.9 °F 34.6 °F 30.26 in ESE 4.0 mph 21.0 mph 75% 0.00 in 0.00 W/m2
00:44 41.9 °F 34.9 °F 30.26 in SE 9.0 mph 18.0 mph 76% 0.00 in 0.00 W/m2
00:49 41.8 °F 34.5 °F 30.26 in Calm   16.0 mph 75% 0.00 in 0.00 W/m2
00:54 41.8 °F 34.8 °F 30.26 in ESE 4.0 mph 15.0 mph 76% 0.00 in 0.00 W/m2
00:59 41.7 °F 34.7 °F 30.26 in SE 11.0 mph 20.0 mph 76% 0.00 in 0.00 W/m2
01:04 41.7 °F 34.7 °F 30.26 in ESE 4.0 mph 15.0 mph 76% 0.00 in 0.00 W/m2
01:09 41.6 °F 34.9 °F 30.26 in ESE 4.0 mph 14.0 mph 77% 0.00 in 0.00 W/m2
01:14 41.5 °F 34.8 °F 30.26 in ESE 7.0 mph 18.0 mph 77% 0.00 in 0.00 W/m2
01:19 41.4 °F 34.4 °F 30.26 in East 12.0 mph 16.0 mph 76% 0.00 in 0.00 W/m2
01:24 41.3 °F 34.7 °F 30.26 in ESE 7.0 mph 19.0 mph 77% 0.00 in 0.00 W/m2
01:29 41.2 °F 34.2 °F 30.26 in ESE 13.0 mph 18.0 mph 76% 0.00 in 0.00 W/m2
01:34 41.2 °F 34.2 °F 30.26 in East 14.0 mph 22.0 mph 76% 0.00 in 0.00 W/m2
01:39 41.2 °F 34.2 °F 30.26 in East 5.0 mph 18.0 mph 76% 0.00 in 0.00 W/m2
01:44 41.2 °F 33.9 °F 30.25 in East 9.0 mph 16.0 mph 75% 0.00 in 0.00 W/m2
01:49 41.2 °F 34.2 °F 30.25 in East 11.0 mph 16.0 mph 76% 0.00 in 0.00 W/m2
01:54 41.2 °F 34.2 °F 30.25 in East 6.0 mph 15.0 mph 76% 0.00 in 0.00 W/m2
01:59 41.3 °F 34.3 °F 30.25 in East 5.0 mph 17.0 mph 76% 0.00 in 0.00 W/m2
02:04 41.3 °F 34.7 °F 30.25 in East 7.0 mph 17.0 mph 77% 0.00 in 0.00 W/m2
02:10 41.2 °F 34.2 °F 30.25 in East 14.0 mph 16.0 mph 76% 0.00 in 0.00 W/m2
02:15 41.3 °F 34.3 °F 30.25 in Calm   12.0 mph 76% 0.00 in 0.00 W/m2
02:20 41.3 °F 33.7 °F 30.25 in ESE 8.0 mph 19.0 mph 74% 0.00 in 0.00 W/m2
02:25 41.3 °F 34.0 °F 30.26 in ESE 6.0 mph 16.0 mph 75% 0.00 in 0.00 W/m2
02:30 41.3 °F 34.3 °F 30.26 in East 4.0 mph 16.0 mph 76% 0.00 in 0.00 W/m2
02:35 41.3 °F 34.3 °F 30.26 in ESE 15.0 mph 21.0 mph 76% 0.00 in 0.00 W/m2
02:36 41.3 °F 34.3 °F 30.26 in East 12.0 mph 18.0 mph 76% 0.00 in 0.00 W/m2
02:41 41.3 °F 34.0 °F 30.26 in ESE 11.0 mph 16.0 mph 75% 0.00 in 0.00 W/m2
02:46 41.3 °F 34.3 °F 30.26 in East 18.0 mph 18.0 mph 76% 0.00 in 0.00 W/m2
02:51 41.2 °F 34.5 °F 30.26 in East 5.0 mph 13.0 mph 77% 0.00 in 0.00 W/m2
02:56 41.2 °F 33.9 °F 30.26 in Calm   13.0 mph 75% 0.00 in 0.00 W/m2
03:01 41.1 °F 34.1 °F 30.26 in ESE 9.0 mph 14.0 mph 76% 0.00 in 0.00 W/m2
03:07 41.0 °F 34.0 °F 30.26 in East 6.0 mph 14.0 mph 76% 0.00 in 0.00 W/m2
03:12 40.9 °F 33.6 °F 30.26 in ESE 2.0 mph 12.0 mph 75% 0.00 in 0.00 W/m2
03:17 40.9 °F 33.9 °F 30.26 in East 2.0 mph 9.0 mph 76% 0.00 in 0.00 W/m2
03:22 40.8 °F 33.5 °F 30.26 in ESE 6.0 mph 14.0 mph 75% 0.00 in 0.00 W/m2
03:27 40.7 °F 33.4 °F 30.26 in East 13.0 mph 14.0 mph 75% 0.00 in 0.00 W/m2
03:32 40.7 °F 33.7 °F 30.26 in ESE 7.0 mph 14.0 mph 76% 0.00 in 0.00 W/m2
03:37 40.6 °F 34.0 °F 30.26 in East 6.0 mph 11.0 mph 77% 0.00 in 0.00 W/m2
03:42 40.5 °F 33.9 °F 30.26 in ESE 4.0 mph 11.0 mph 77% 0.00 in 0.00 W/m2
03:47 40.4 °F 34.1 °F 30.25 in East 7.0 mph 13.0 mph 78% 0.00 in 0.00 W/m2
03:52 40.3 °F 33.7 °F 30.25 in East 5.0 mph 13.0 mph 77% 0.00 in 0.00 W/m2
03:57 40.3 °F 33.7 °F 30.25 in Calm   14.0 mph 77% 0.00 in 0.00 W/m2
04:02 40.3 °F 34.0 °F 30.26 in East 8.0 mph 9.0 mph 78% 0.00 in 0.00 W/m2
04:07 40.2 °F 33.2 °F 30.26 in ESE 11.0 mph 14.0 mph 76% 0.00 in 0.00 W/m2
04:12 40.2 °F 33.6 °F 30.26 in ESE 5.0 mph 16.0 mph 77% 0.00 in 0.00 W/m2
04:17 40.2 °F 33.2 °F 30.26 in ESE 7.0 mph 12.0 mph 76% 0.00 in 0.00 W/m2
04:22 40.3 °F 33.0 °F 30.26 in East 2.0 mph 13.0 mph 75% 0.00 in 0.00 W/m2
04:27 40.3 °F 33.0 °F 30.26 in ESE 8.0 mph 11.0 mph 75% 0.00 in 0.00 W/m2
04:32 40.4 °F 33.5 °F 30.26 in ESE 6.0 mph 16.0 mph 76% 0.00 in 0.00 W/m2
04:37 40.4 °F 33.5 °F 30.26 in ESE 4.0 mph 9.0 mph 76% 0.00 in 0.00 W/m2
04:42 40.4 °F 33.5 °F 30.27 in ESE 4.0 mph 11.0 mph 76% 0.00 in 0.00 W/m2
04:47 40.4 °F 33.8 °F 30.27 in East 11.0 mph 15.0 mph 77% 0.00 in 0.00 W/m2
04:52 40.4 °F 33.5 °F 30.27 in East 7.0 mph 9.0 mph 76% 0.00 in 0.00 W/m2
04:57 40.3 °F 33.7 °F 30.26 in East 7.0 mph 11.0 mph 77% 0.00 in 0.00 W/m2
05:02 40.2 °F 33.6 °F 30.26 in Calm   11.0 mph 77% 0.00 in 0.00 W/m2
05:07 40.2 °F 33.2 °F 30.26 in ESE 9.0 mph 11.0 mph 76% 0.00 in 0.00 W/m2
05:12 40.1 °F 33.2 °F 30.26 in ESE 4.0 mph 13.0 mph 76% 0.00 in 0.00 W/m2
05:17 40.1 °F 33.2 °F 30.26 in ESE 12.0 mph 12.0 mph 76% 0.00 in 0.00 W/m2
05:22 40.0 °F 33.4 °F 30.26 in East 6.0 mph 12.0 mph 77% 0.00 in 0.00 W/m2
05:27 40.0 °F 33.1 °F 30.26 in Calm   9.0 mph 76% 0.00 in 0.00 W/m2
05:32 40.0 °F 33.4 °F 30.27 in ESE 9.0 mph 11.0 mph 77% 0.00 in 0.00 W/m2
05:37 39.9 °F 33.0 °F 30.27 in ESE 6.0 mph 8.0 mph 76% 0.00 in 0.00 W/m2
05:42 39.9 °F 33.0 °F 30.27 in ESE 4.0 mph 11.0 mph 76% 0.00 in 0.00 W/m2
05:45 39.8 °F 32.9 °F 30.27 in ESE 7.0 mph 11.0 mph 76% 0.00 in 0.00 W/m2
05:50 39.9 °F 33.3 °F 30.27 in ESE 7.0 mph 11.0 mph 77% 0.00 in 0.00 W/m2
05:55 39.8 °F 33.5 °F 30.27 in East 6.0 mph 11.0 mph 78% 0.00 in 0.00 W/m2
06:00 39.8 °F 32.9 °F 30.27 in Calm   7.0 mph 76% 0.00 in 0.00 W/m2
06:05 39.7 °F 33.4 °F 30.28 in Calm     78% 0.00 in 0.00 W/m2
06:10 39.7 °F 33.1 °F 30.28 in Calm     77% 0.00 in 0.00 W/m2
06:20 39.5 °F 32.9 °F 30.28 in Calm     77% 0.00 in 0.00 W/m2
06:25 39.4 °F 33.1 °F 30.28 in Calm     78% 0.00 in 0.00 W/m2
06:30 39.3 °F 33.3 °F 30.28 in Calm     79% 0.00 in 0.00 W/m2
06:35 39.2 °F 33.2 °F 30.29 in Calm     79% 0.00 in 0.00 W/m2
06:40 39.1 °F 33.2 °F 30.28 in Calm     79% 0.00 in 0.00 W/m2
06:41 39.1 °F 33.2 °F 30.28 in Calm     79% 0.00 in 0.00 W/m2
06:46 39.0 °F 33.0 °F 30.29 in ESE 1.0 mph 7.0 mph 79% 0.00 in 5.00 W/m2
06:51 38.9 °F 33.0 °F 30.29 in Calm     79% 0.00 in 7.00 W/m2
06:56 38.9 °F 33.0 °F 30.29 in Calm     79% 0.00 in 9.00 W/m2
07:01 38.8 °F 33.2 °F 30.29 in Calm     80% 0.00 in 11.00 W/m2
07:06 38.8 °F 33.2 °F 30.29 in Calm   1.0 mph 80% 0.00 in 12.00 W/m2
07:11 38.7 °F 33.1 °F 30.29 in Calm     80% 0.00 in 16.00 W/m2
07:16 38.7 °F 33.1 °F 30.29 in Calm   1.0 mph 80% 0.00 in 23.00 W/m2
07:21 38.6 °F 33.0 °F 30.29 in ESE 1.0 mph 1.0 mph 80% 0.00 in 32.00 W/m2
07:26 38.6 °F 33.0 °F 30.30 in Calm   1.0 mph 80% 0.00 in 47.00 W/m2
07:31 38.7 °F 33.4 °F 30.30 in Calm   4.0 mph 81% 0.00 in 60.00 W/m2
07:36 38.7 °F 33.4 °F 30.30 in ESE 1.0 mph 1.0 mph 81% 0.00 in 76.00 W/m2
07:41 38.7 °F 33.4 °F 30.30 in Calm   1.0 mph 81% 0.00 in 91.00 W/m2
07:46 38.7 °F 33.4 °F 30.30 in Calm   2.0 mph 81% 0.00 in 102.00 W/m2
07:51 38.8 °F 33.5 °F 30.30 in Calm   1.0 mph 81% 0.00 in 121.00 W/m2
07:56 38.8 °F 33.8 °F 30.31 in ESE 1.0 mph 1.0 mph 82% 0.00 in 135.00 W/m2
08:01 38.9 °F 33.9 °F 30.31 in Calm   2.0 mph 82% 0.00 in 156.00 W/m2
08:06 38.9 °F 33.9 °F 30.31 in Calm   1.0 mph 82% 0.00 in 176.00 W/m2
08:11 39.1 °F 34.1 °F 30.31 in Calm   2.0 mph 82% 0.00 in 193.00 W/m2
08:16 39.2 °F 34.2 °F 30.31 in Calm   2.0 mph 82% 0.00 in 214.00 W/m2
08:17 39.2 °F 34.2 °F 30.31 in Calm   2.0 mph 82% 0.00 in 216.00 W/m2
08:22 39.4 °F 34.4 °F 30.32 in Calm   1.0 mph 82% 0.00 in 232.00 W/m2
08:23 39.4 °F 34.4 °F 30.32 in Calm   1.0 mph 82% 0.00 in 237.00 W/m2
08:28 39.6 °F 34.9 °F 30.32 in Calm   2.0 mph 83% 0.00 in 251.00 W/m2
08:33 39.8 °F 35.1 °F 30.31 in Calm   1.0 mph 83% 0.00 in 272.00 W/m2
08:38 40.0 °F 35.3 °F 30.32 in Calm   4.0 mph 83% 0.00 in 288.00 W/m2
08:43 40.2 °F 35.5 °F 30.32 in ESE 2.0 mph 2.0 mph 83% 0.00 in 306.00 W/m2
08:48 40.5 °F 35.8 °F 30.32 in Calm   4.0 mph 83% 0.00 in 320.00 W/m2
08:53 40.7 °F 36.2 °F 30.32 in Calm   2.0 mph 84% 0.00 in 334.00 W/m2
08:58 41.0 °F 36.5 °F 30.33 in Calm   1.0 mph 84% 0.00 in 346.00 W/m2
09:03 41.2 °F 36.4 °F 30.32 in Calm   1.0 mph 83% 0.00 in 359.00 W/m2
09:08 41.4 °F 36.3 °F 30.32 in Calm   2.0 mph 82% 0.00 in 369.00 W/m2
09:13 41.8 °F 37.0 °F 30.32 in Calm   2.0 mph 83% 0.00 in 383.00 W/m2
09:19 42.1 °F 36.7 °F 30.33 in ESE 1.0 mph 2.0 mph 81% 0.00 in 394.00 W/m2
09:24 42.4 °F 36.7 °F 30.33 in Calm   2.0 mph 80% 0.00 in 404.00 W/m2
09:29 42.8 °F 37.4 °F 30.33 in Calm   1.0 mph 81% 0.00 in 415.00 W/m2
09:34 43.2 °F 37.8 °F 30.33 in Calm     81% 0.00 in 425.00 W/m2
09:39 43.5 °F 38.1 °F 30.33 in Calm     81% 0.00 in 436.00 W/m2
09:44 43.9 °F 38.5 °F 30.33 in Calm   4.0 mph 81% 0.00 in 448.00 W/m2
09:49 44.4 °F 39.3 °F 30.33 in Calm     82% 0.00 in 457.00 W/m2
09:54 44.6 °F 38.8 °F 30.33 in Calm     80% 0.00 in 464.00 W/m2
09:59 44.9 °F 38.5 °F 30.33 in Calm     78% 0.00 in 475.00 W/m2
10:04 45.2 °F 37.8 °F 30.33 in Calm     75% 0.00 in 483.00 W/m2
10:09 45.8 °F 37.7 °F 30.33 in Calm   1.0 mph 73% 0.00 in 489.00 W/m2
10:14 46.1 °F 37.6 °F 30.33 in Calm   2.0 mph 72% 0.00 in 497.00 W/m2
10:19 46.4 °F 37.9 °F 30.33 in Calm     72% 0.00 in 506.00 W/m2
10:24 46.8 °F 39.7 °F 30.33 in Calm   4.0 mph 76% 0.00 in 512.00 W/m2
10:29 47.2 °F 37.9 °F 30.33 in Calm     70% 0.00 in 520.00 W/m2
10:34 47.7 °F 40.5 °F 30.33 in Calm   1.0 mph 76% 0.00 in 524.00 W/m2
10:39 47.9 °F 37.9 °F 30.32 in SE 1.0 mph 1.0 mph 68% 0.00 in 531.00 W/m2
10:44 48.2 °F 38.2 °F 30.32 in Calm     68% 0.00 in 536.00 W/m2
10:49 48.4 °F 38.3 °F 30.32 in SE 2.0 mph 4.0 mph 68% 0.00 in 541.00 W/m2
10:54 48.7 °F 39.7 °F 30.32 in Calm   1.0 mph 71% 0.00 in 543.00 W/m2
10:59 48.9 °F 39.2 °F 30.32 in Calm     69% 0.00 in 548.00 W/m2
11:04 49.1 °F 38.6 °F 30.32 in Calm     67% 0.00 in 554.00 W/m2
11:05 49.1 °F 38.6 °F 30.32 in Calm     67% 0.00 in 554.00 W/m2
11:10 49.2 °F 38.0 °F 30.32 in Calm     65% 0.00 in 555.00 W/m2
11:15 49.4 °F 37.8 °F 30.32 in Calm     64% 0.00 in 559.00 W/m2
11:20 49.7 °F 38.0 °F 30.31 in Calm     64% 0.00 in 561.00 W/m2
11:25 50.1 °F 38.4 °F 30.31 in Calm     64% 0.00 in 564.00 W/m2
11:30 50.3 °F 39.0 °F 30.31 in Calm     65% 0.00 in 568.00 W/m2
11:35 50.5 °F 39.6 °F 30.31 in Calm     66% 0.00 in 566.00 W/m2
11:40 50.7 °F 39.8 °F 30.30 in Calm     66% 0.00 in 568.00 W/m2
11:45 50.9 °F 39.2 °F 30.30 in Calm     64% 0.00 in 568.00 W/m2
11:50 51.2 °F 40.2 °F 30.30 in Calm     66% 0.00 in 570.00 W/m2
11:55 51.3 °F 40.7 °F 30.30 in Calm   5.0 mph 67% 0.00 in 570.00 W/m2
12:00 51.5 °F 42.4 °F 30.29 in Calm   2.0 mph 71% 0.00 in 568.00 W/m2
12:05 51.6 °F 41.0 °F 30.29 in Calm   2.0 mph 67% 0.00 in 566.00 W/m2
12:10 51.8 °F 40.0 °F 30.29 in Calm     64% 0.00 in 563.00 W/m2
12:15 51.9 °F 38.5 °F 30.28 in Calm     60% 0.00 in 559.00 W/m2
12:20 52.2 °F 40.0 °F 30.28 in Calm     63% 0.00 in 559.00 W/m2
12:25 52.5 °F 38.6 °F 30.28 in Calm     59% 0.00 in 555.00 W/m2
12:30 52.7 °F 39.6 °F 30.27 in Calm     61% 0.00 in 552.00 W/m2
12:35 52.9 °F 40.7 °F 30.27 in Calm     63% 0.00 in 547.00 W/m2
12:40 53.0 °F 41.6 °F 30.27 in Calm     65% 0.00 in 543.00 W/m2
12:45 53.1 °F 42.1 °F 30.26 in Calm     66% 0.00 in 538.00 W/m2
12:50 53.3 °F 43.4 °F 30.26 in Calm     69% 0.00 in 534.00 W/m2
12:55 53.3 °F 40.2 °F 30.26 in Calm     61% 0.00 in 527.00 W/m2
13:00 53.5 °F 40.4 °F 30.25 in Calm   6.0 mph 61% 0.00 in 524.00 W/m2
13:05 53.6 °F 41.7 °F 30.25 in Calm   1.0 mph 64% 0.00 in 519.00 W/m2
13:10 53.9 °F 41.6 °F 30.25 in SSE 2.0 mph 4.0 mph 63% 0.00 in 512.00 W/m2
13:11 53.9 °F 41.2 °F 30.25 in SE 4.0 mph 4.0 mph 62% 0.00 in 512.00 W/m2
13:16 54.1 °F 41.4 °F 30.25 in Calm     62% 0.00 in 504.00 W/m2
13:21 54.4 °F 41.7 °F 30.24 in Calm     62% 0.00 in 144.00 W/m2
13:26 54.5 °F 43.0 °F 30.24 in SSW 2.0 mph 2.0 mph 65% 0.00 in 527.00 W/m2
13:31 54.6 °F 42.3 °F 30.25 in Calm   6.0 mph 63% 0.00 in 510.00 W/m2
13:36 54.6 °F 42.7 °F 30.25 in Calm     64% 0.00 in 527.00 W/m2
13:41 54.8 °F 41.6 °F 30.24 in Calm     61% 0.00 in 487.00 W/m2
13:46 55.0 °F 43.9 °F 30.24 in WSW 3.0 mph 6.0 mph 66% 0.00 in 459.00 W/m2
13:51 55.0 °F 43.1 °F 30.24 in Calm     64% 0.00 in 441.00 W/m2
13:56 55.1 °F 42.3 °F 30.24 in Calm     62% 0.00 in 429.00 W/m2
14:01 55.2 °F 42.4 °F 30.24 in Calm     62% 0.00 in 417.00 W/m2
14:06 55.2 °F 42.0 °F 30.24 in Calm   1.0 mph 61% 0.00 in 408.00 W/m2
14:11 55.2 °F 41.6 °F 30.23 in Calm   2.0 mph 60% 0.00 in 397.00 W/m2
14:16 55.3 °F 42.5 °F 30.24 in Calm     62% 0.00 in 355.00 W/m2
14:21 55.2 °F 42.0 °F 30.24 in WNW 2.0 mph 2.0 mph 61% 0.00 in 374.00 W/m2
14:26 55.1 °F 42.8 °F 30.24 in WNW 2.0 mph 2.0 mph 63% 0.00 in 366.00 W/m2
14:31 55.0 °F 43.1 °F 30.23 in Calm   1.0 mph 64% 0.00 in 353.00 W/m2
14:36 55.0 °F 43.9 °F 30.23 in Calm     66% 0.00 in 345.00 W/m2
14:41 54.8 °F 43.3 °F 30.23 in Calm     65% 0.00 in 329.00 W/m2
14:46 54.7 °F 43.2 °F 30.23 in Calm     65% 0.00 in 114.00 W/m2
14:51 54.6 °F 43.9 °F 30.23 in Calm     67% 0.00 in 297.00 W/m2
14:56 54.5 °F 44.5 °F 30.23 in Calm     69% 0.00 in 165.00 W/m2
15:01 54.3 °F 44.0 °F 30.23 in Calm     68% 0.00 in 169.00 W/m2
15:06 54.2 °F 44.3 °F 30.23 in Calm     69% 0.00 in 302.00 W/m2
15:11 54.0 °F 42.9 °F 30.23 in Calm     66% 0.00 in 160.00 W/m2
15:16 54.0 °F 44.1 °F 30.23 in Calm     69% 0.00 in 114.00 W/m2
15:17 53.9 °F 44.3 °F 30.23 in Calm     70% 0.00 in 98.00 W/m2
15:22 53.8 °F 43.9 °F 30.23 in Calm     69% 0.00 in 93.00 W/m2
15:27 53.7 °F 43.8 °F 30.23 in Calm     69% 0.00 in 156.00 W/m2
15:32 53.5 °F 44.0 °F 30.23 in Calm     70% 0.00 in 183.00 W/m2
15:37 53.2 °F 44.4 °F 30.23 in Calm   4.0 mph 72% 0.00 in 155.00 W/m2
15:42 53.1 °F 45.0 °F 30.23 in Calm     74% 0.00 in 165.00 W/m2
15:47 53.0 °F 45.0 °F 30.23 in Calm     74% 0.00 in 127.00 W/m2
15:52 52.9 °F 45.5 °F 30.23 in Calm     76% 0.00 in 95.00 W/m2
15:57 52.8 °F 46.5 °F 30.23 in Calm     79% 0.00 in 62.00 W/m2
16:02 52.5 °F 46.5 °F 30.23 in Calm     80% 0.00 in 58.00 W/m2
16:07 52.3 °F 46.3 °F 30.23 in Calm     80% 0.00 in 42.00 W/m2
16:12 52.1 °F 45.8 °F 30.23 in Calm     79% 0.00 in 40.00 W/m2
16:17 51.9 °F 45.9 °F 30.23 in Calm     80% 0.00 in 42.00 W/m2
16:22 51.5 °F 45.9 °F 30.23 in Calm     81% 0.00 in 33.00 W/m2
16:27 51.3 °F 45.7 °F 30.23 in Calm     81% 0.00 in 30.00 W/m2
16:32 50.8 °F 45.5 °F 30.23 in Calm     82% 0.00 in 21.00 W/m2
16:37 50.5 °F 45.2 °F 30.23 in Calm     82% 0.00 in 12.00 W/m2
16:42 50.3 °F 45.3 °F 30.23 in Calm     83% 0.00 in 7.00 W/m2
16:47 49.9 °F 44.6 °F 30.23 in Calm     82% 0.00 in 5.00 W/m2
16:52 49.6 °F 44.7 °F 30.23 in Calm     83% 0.00 in 0.00 W/m2
16:57 49.1 °F 44.5 °F 30.23 in Calm     84% 0.00 in 5.00 W/m2
17:02 48.9 °F 44.3 °F 30.23 in Calm     84% 0.00 in 0.00 W/m2
17:07 48.6 °F 44.0 °F 30.23 in Calm     84% 0.00 in 0.00 W/m2
17:12 48.3 °F 44.0 °F 30.23 in Calm     85% 0.00 in 0.00 W/m2
17:17 48.1 °F 43.8 °F 30.23 in Calm     85% 0.00 in 0.00 W/m2
17:22 47.9 °F 43.9 °F 30.23 in Calm     86% 0.00 in 0.00 W/m2
17:27 47.7 °F 43.7 °F 30.23 in Calm     86% 0.00 in 0.00 W/m2
17:32 47.6 °F 43.6 °F 30.23 in Calm     86% 0.00 in 0.00 W/m2
17:37 47.3 °F 43.6 °F 30.23 in Calm     87% 0.00 in 0.00 W/m2
17:42 47.2 °F 43.5 °F 30.23 in Calm     87% 0.00 in 0.00 W/m2
17:47 47.0 °F 43.3 °F 30.23 in Calm     87% 0.00 in 0.00 W/m2
17:52 47.0 °F 43.3 °F 30.23 in Calm     87% 0.00 in 0.00 W/m2
17:57 46.8 °F 43.1 °F 30.23 in Calm     87% 0.00 in 0.00 W/m2
18:02 46.6 °F 42.9 °F 30.23 in Calm     87% 0.00 in 0.00 W/m2
18:08 46.4 °F 42.8 °F 30.23 in Calm     87% 0.00 in 0.00 W/m2
18:13 46.2 °F 42.5 °F 30.23 in Calm     87% 0.00 in 0.00 W/m2
18:18 46.1 °F 42.8 °F 30.23 in Calm     88% 0.00 in 0.00 W/m2
18:23 46.0 °F 42.7 °F 30.23 in Calm     88% 0.00 in 0.00 W/m2
18:28 45.9 °F 42.5 °F 30.23 in Calm     88% 0.00 in 0.00 W/m2
18:33 45.8 °F 42.5 °F 30.23 in Calm     88% 0.00 in 0.00 W/m2
18:38 45.8 °F 42.5 °F 30.23 in Calm     88% 0.00 in 0.00 W/m2
18:43 45.8 °F 42.5 °F 30.23 in Calm     88% 0.00 in 0.00 W/m2
18:48 45.8 °F 42.5 °F 30.23 in Calm     88% 0.00 in 0.00 W/m2
18:53 45.8 °F 42.5 °F 30.23 in Calm     88% 0.00 in 0.00 W/m2
18:58 45.8 °F 42.5 °F 30.23 in Calm     88% 0.00 in 0.00 W/m2
19:03 45.8 °F 42.5 °F 30.23 in Calm     88% 0.00 in 0.00 W/m2
19:08 45.7 °F 42.7 °F 30.23 in Calm     89% 0.00 in 0.00 W/m2
19:20 45.6 °F 42.3 °F 30.24 in Calm     88% 0.00 in 0.00 W/m2
19:25 45.5 °F 42.2 °F 30.24 in Calm     88% 0.00 in 0.00 W/m2
19:28 45.5 °F 42.2 °F 30.24 in Calm     88% 0.00 in 0.00 W/m2
19:30 45.5 °F 42.2 °F 30.24 in Calm     88% 0.00 in 0.00 W/m2
19:31 45.4 °F 42.1 °F 30.24 in Calm     88% 0.00 in 0.00 W/m2
19:32 45.4 °F 42.1 °F 30.24 in Calm     88% 0.00 in 0.00 W/m2
19:37 45.4 °F 42.1 °F 30.23 in Calm     88% 0.00 in 0.00 W/m2
19:42 45.3 °F 42.0 °F 30.23 in Calm   3.0 mph 88% 0.00 in 0.00 W/m2
19:47 45.2 °F 41.9 °F 30.23 in North 1.0 mph 3.0 mph 88% 0.00 in 0.00 W/m2
19:52 45.3 °F 42.0 °F 30.24 in Calm   4.0 mph 88% 0.00 in 0.00 W/m2
19:57 45.2 °F 42.2 °F 30.24 in Calm     89% 0.00 in 0.00 W/m2
20:02 45.2 °F 42.2 °F 30.24 in Calm     89% 0.00 in 0.00 W/m2
20:07 45.2 °F 42.2 °F 30.24 in Calm     89% 0.00 in 0.00 W/m2
20:08 45.3 °F 42.3 °F 30.24 in Calm   2.0 mph 89% 0.00 in 0.00 W/m2
20:13 45.3 °F 42.3 °F 30.24 in NE 3.0 mph 5.0 mph 89% 0.00 in 0.00 W/m2
20:18 45.3 °F 42.3 °F 30.24 in Calm   6.0 mph 89% 0.00 in 0.00 W/m2
20:23 45.3 °F 42.3 °F 30.24 in Calm   4.0 mph 89% 0.00 in 0.00 W/m2
20:28 45.2 °F 42.2 °F 30.24 in Calm     89% 0.00 in 0.00 W/m2
20:33 45.2 °F 42.2 °F 30.24 in Calm   4.0 mph 89% 0.00 in 0.00 W/m2
20:38 45.2 °F 42.2 °F 30.24 in East 5.0 mph 6.0 mph 89% 0.00 in 0.00 W/m2
20:43 45.2 °F 42.2 °F 30.24 in Calm   11.0 mph 89% 0.00 in 0.00 W/m2
20:48 45.2 °F 41.9 °F 30.24 in Calm   6.0 mph 88% 0.00 in 0.00 W/m2
20:53 45.2 °F 41.9 °F 30.24 in Calm   8.0 mph 88% 0.00 in 0.00 W/m2
20:58 45.2 °F 41.9 °F 30.24 in Calm   1.0 mph 88% 0.00 in 0.00 W/m2
21:03 45.2 °F 41.9 °F 30.24 in Calm   4.0 mph 88% 0.00 in 0.00 W/m2
21:08 45.3 °F 42.0 °F 30.24 in Calm   8.0 mph 88% 0.00 in 0.00 W/m2
21:13 45.3 °F 42.0 °F 30.24 in Calm   7.0 mph 88% 0.00 in 0.00 W/m2
21:18 45.3 °F 42.0 °F 30.23 in Calm   7.0 mph 88% 0.00 in 0.00 W/m2
21:19 45.3 °F 43.1 °F 30.24 in Calm   7.0 mph 92% 0.00 in 0.00 W/m2
21:24 45.3 °F 43.1 °F 30.24 in Calm   8.0 mph 92% 0.00 in 0.00 W/m2
21:29 45.3 °F 42.0 °F 30.24 in Calm   11.0 mph 88% 0.00 in 0.00 W/m2
21:34 45.3 °F 42.0 °F 30.24 in East 8.0 mph 9.0 mph 88% 0.00 in 0.00 W/m2
21:39 45.3 °F 42.0 °F 30.24 in Calm   7.0 mph 88% 0.00 in 0.00 W/m2
21:42 45.3 °F 41.7 °F 30.24 in Calm   9.0 mph 87% 0.00 in 0.00 W/m2
21:47 45.3 °F 41.7 °F 30.24 in Calm   1.0 mph 87% 0.00 in 0.00 W/m2
21:52 45.2 °F 41.6 °F 30.24 in Calm   9.0 mph 87% 0.00 in 0.00 W/m2
21:57 45.2 °F 41.6 °F 30.24 in Calm   7.0 mph 87% 0.00 in 0.00 W/m2
22:02 45.1 °F 41.5 °F 30.24 in East 5.0 mph 8.0 mph 87% 0.00 in 0.00 W/m2
22:07 45.0 °F 41.4 °F 30.24 in East 5.0 mph 9.0 mph 87% 0.00 in 0.00 W/m2
22:12 45.0 °F 41.4 °F 30.24 in ESE 5.0 mph 6.0 mph 87% 0.00 in 0.00 W/m2
22:17 44.9 °F 41.3 °F 30.24 in Calm   11.0 mph 87% 0.00 in 0.00 W/m2
22:27 44.9 °F 41.0 °F 30.24 in Calm     86% 0.00 in 0.00 W/m2
22:48 44.7 °F 40.5 °F 30.24 in Calm   7.0 mph 85% 0.00 in 0.00 W/m2
22:58 44.6 °F 40.4 °F 30.23 in East 2.0 mph 12.0 mph 85% 0.00 in 0.00 W/m2
23:03 44.6 °F 40.4 °F 30.23 in Calm   9.0 mph 85% 0.00 in 0.00 W/m2
23:08 44.6 °F 40.4 °F 30.23 in ESE 2.0 mph 11.0 mph 85% 0.00 in 0.00 W/m2
23:13 44.4 °F 40.2 °F 30.23 in ESE 4.0 mph 14.0 mph 85% 0.00 in 0.00 W/m2
23:18 44.3 °F 40.1 °F 30.23 in Calm   14.0 mph 85% 0.00 in 0.00 W/m2
23:28 44.3 °F 39.8 °F 30.23 in Calm   13.0 mph 84% 0.00 in 0.00 W/m2
23:34 44.3 °F 39.8 °F 30.23 in Calm   7.0 mph 84% 0.00 in 0.00 W/m2
23:39 44.2 °F 39.7 °F 30.23 in Calm   9.0 mph 84% 0.00 in 0.00 W/m2
23:49 44.0 °F 39.2 °F 30.23 in Calm   13.0 mph 83% 0.00 in 0.00 W/m2
23:59 44.0 °F 39.2 °F 30.23 in Calm   8.0 mph 83% 0.00 in 0.00 W/m2
Foresthill Weather
 WU-history PHP script courtesy of   Juneau County Weather.
powered by Cumulus v1.9.3 (1059)
Ambient Weather VWS v14.00
Top Contact Website Map Copyright © 2007 - 2018 Foresthillweather.com Never base important decisions on this or any weather information obtained from the Internet